Dewpoint
69 72 73 72 73 73 73 72 72 73 73 72 73 73 73 73 73 73 73 72 72 72 72 72 72 72 70 70 71 71 70 70 67 66 68 70 71 71 72 72 72 73 72
68 68 68 72 73 72 73 73 72 72 72 72 72 72 72 72 73 73 72 72 72 72 72 72 72 70 72 72 71 71 70 71 68 68 71 67 70 71 71 72 72 72 71
67 67 67 67 67 72 73 72 73 73 72 71 72 72 72 72 73 73 73 72 72 72 72 72 72 71 71 71 71 71 71 70 69 69 66 67 69 70 69 70 71 71 71
66 67 68 68 69 68 73 74 72 73 73 72 72 72 72 73 73 72 72 72 72 72 72 71 71 70 71 72 72 71 70 68 68 68 67 68 67 69 69 67 67 69 69
66 66 66 67 71 72 73 73 73 72 73 73 73 73 73 73 72 73 72 72 73 72 71 71 71 71 70 71 71 72 70 68 68 68 67 66 66 66 66 67 66 66 68
66 65 66 66 66 68 68 68 67 67 66 68 71 72 73 73 67 66 71 73 72 71 70 71 72 70 70 66 66 67 70 70 68 66 66 65 66 66 66 66 66 65 63
65 64 64 65 65 66 67 67 66 66 66 66 67 67 69 72 64 63 66 73 71 70 70 71 71 70 70 71 66 64 65 65 66 70 69 68 68 69 69 68 67 65 64
64 66 65 65 64 65 66 66 67 67 67 66 66 66 67 69 61 59 63 72 72 72 72 72 73 72 71 71 70 70 70 70 69 68 70 70 71 71 71 70 69 68 67
63 63 63 65 64 63 64 65 66 66 66 66 67 67 67 68 58 58 63 70 71 72 72 73 72 72 66 63 70 70 70 69 64 63 63 63 63 63 66 68 66 65 63
61 61 62 64 64 64 64 65 66 66 65 65 66 67 65 67 57 55 62 67 67 68 70 70 63 68 60 58 70 70 69 69 69 68 69 66 64 67 61 69 68 65 63
61 62 63 62 62 63 64 65 65 66 66 67 66 66 67 66 66 54 56 66 66 68 68 68 69 57 55 55 57 73 69 71 68 69 68 67 68 68 67 68 70 69 65
61 61 61 63 61 60 64 64 65 65 65 65 64 63 63 62 54 53 53 59 63 67 68 69 68 56 52 51 55 57 54 60 70 70 67 66 71 71 72 67 69 69 72
60 60 60 61 61 62 62 64 62 64 64 64 61 61 61 61 60 53 52 54 57 66 68 63 56 53 52 53 53 54 55 66 68 67 68 69 66 69 70 69 69 70 69
59 59 59 59 60 61 59 58 60 61 61 60 57 57 57 58 59 59 58 60 58 60 60 60 58 57 55 57 59 60 64 65 65 66 66 67 68 68 67 67 66 66 66
58 57 58 57 59 58 60 58 57 58 55 57 57 57 57 57 54 47 51 56 56 52 58 61 61 61 61 60 60 60 61 61 61 63 65 66 67 68 66 66 66 65 64
57 55 55 55 55 54 55 55 48 46 44 43 45 53 55 47 44 43 43 44 45 46 58 59 59 59 61 61 61 60 61 62 63 64 64 64 64 64 64 64 65 66 63
57 57 55 54 54 54 54 53 54 50 44 43 42 43 45 45 43 43 44 45 46 49 57 57 58 58 59 59 60 61 61 61 62 63 63 64 63 64 63 63 63 63 63
56 51 53 54 53 54 54 53 50 52 53 55 46 47 42 42 42 43 46 48 55 55 56 56 57 57 56 57 57 58 58 59 61 62 62 63 63 63 63 63 62 62 63
54 54 54 54 55 54 57 54 52 53 53 54 54 49 46 42 43 46 48 55 54 55 55 55 56 56 56 57 58 58 59 59 59 60 60 61 61 61 61 62 62 55 58
55 53 53 55 54 55 55 56 56 57 57 56 54 55 54 52 57 57 57 57 56 55 55 56 56 57 56 57 57 57 57 57 58 59 59 59 59 60 59 59 60 59 60
53 52 53 53 53 54 55 56 57 57 56 56 57 55 49 57 57 56 56 56 56 57 57 56 55 57 57 57 57 57 56 56 57 57 58 57 58 57 58 59 58 58 58
53 52 51 51 53 53 52 54 54 53 54 54 55 54 45 55 56 55 55 56 55 57 57 57 55 56 56 57 58 57 56 57 57 57 57 57 56 56 56 57 57 57 57
52 52 52 53 53 52 51 50 49 49 48 50 53 54 55 56 56 55 55 56 56 56 56 56 55 54 56 57 57 57 55 57 57 57 55 55 55 55 56 56 56 56 56
46 48 49 50 52 51 51 50 50 48 49 49 51 55 54 56 56 56 55 55 55 55 55 54 54 53 55 55 55 54 53 55 56 55 56 54 54 53 54 54 53 54 54
45 45 46 48 48 48 50 51 51 50 50 50 49 52 52 54 55 56 56 55 55 54 54 54 53 52 52 53 51 51 45 37 49 40 53 51 53 55 54 54 54 54 53
40 46 46 47 50 50 48 45 47 48 49 51 51 52 52 51 50 55 56 57 56 54 54 54 55 55 53 51 51 45 38 35 42 34 45 48 47 49 55 54 53 51 51
Lifted_Index
-6 -7 -8 -8 -8 -8 -7 -7 -7 -7 -7 -7 -7 -7 -7 -7 -7 -6 -6 -5 -5 -5 -5 -4 -4 -3 -3 -3 -3 -3 -3 -3 -3 -3 -3 -3 -2 -2 -3 -3 -3 -3 -2
-6 -6 -7 -8 -8 -8 -7 -7 -7 -7 -7 -6 -7 -7 -7 -7 -7 -6 -6 -5 -5 -5 -5 -5 -4 -4 -3 -3 -3 -3 -2 -2 -3 -3 -3 -2 -2 -2 -2 -3 -3 -2 -2
-4 -5 -6 -7 -7 -7 -7 -7 -7 -7 -7 -6 -6 -7 -7 -7 -7 -7 -6 -5 -5 -5 -5 -5 -4 -4 -3 -3 -3 -3 -2 -2 -2 -2 -2 -2 -2 -2 -2 -2 -2 -2 -2
-3 -4 -5 -5 -6 -6 -7 -7 -7 -7 -7 -7 -6 -6 -7 -7 -7 -7 -6 -5 -5 -5 -5 -4 -4 -4 -4 -4 -4 -3 -2 -2 -2 -2 -1 -1 -1 -1 -1 -1 -1 -1 -1
-2 -3 -4 -5 -5 -6 -6 -7 -7 -7 -7 -7 -7 -7 -7 -7 -7 -6 -6 -5 -5 -5 -4 -4 -4 -4 -4 -4 -4 -3 -2 -2 -1 -1 -1 -1 -1 -1 -1 -1 -0 -0 -0
-2 -2 -3 -4 -5 -5 -5 -6 -6 -6 -6 -6 -6 -6 -6 -6 -6 -6 -6 -5 -5 -4 -4 -4 -4 -4 -4 -4 -4 -3 -3 -2 -2 -1 -1 -1 -1 -1 -1 -1 -0 -0 -0
-2 -2 -2 -2 -3 -3 -4 -4 -5 -5 -4 -4 -4 -4 -4 -4 -5 -5 -5 -5 -5 -4 -4 -4 -4 -4 -5 -4 -4 -3 -3 -3 -2 -2 -2 -2 -1 -1 -1 -1 -1 -0 0
-1 -1 -1 -1 -1 -1 -1 -2 -2 -2 -2 -2 -1 -1 -2 -2 -3 -3 -4 -4 -4 -4 -5 -5 -4 -4 -4 -4 -4 -4 -3 -3 -3 -2 -2 -2 -2 -2 -2 -2 -1 -0 -0
-1 -1 -1 -1 -0 0 0 -0 -1 -1 -1 -0 -0 -0 -1 -1 -2 -2 -3 -3 -3 -4 -4 -4 -4 -4 -4 -3 -4 -4 -4 -4 -3 -3 -2 -2 -2 -2 -2 -2 -1 -1 -0
-0 -0 -0 -0 0 0 0 0 0 -0 -0 -1 -1 -1 -1 -1 -1 -2 -1 -1 -2 -2 -2 -2 -3 -3 -3 -3 -3 -4 -4 -4 -4 -3 -3 -2 -2 -2 -2 -2 -2 -1 -1
-0 -0 0 0 1 1 0 0 -0 -1 -1 -1 -1 -1 -1 -1 -1 -1 -1 -1 -1 -1 -1 -1 -1 -1 -1 -1 -2 -3 -3 -3 -4 -4 -3 -3 -3 -3 -2 -2 -2 -2 -2
0 0 1 1 1 1 0 -0 -1 -1 -1 -1 -1 -1 -1 -1 -1 -1 -0 0 0 -0 -0 -1 -1 -0 -0 -0 -0 -1 -1 -2 -2 -3 -3 -3 -3 -3 -3 -3 -2 -2 -2
1 1 1 1 1 1 0 -0 -1 -1 -1 -1 -1 -1 -1 -1 -1 -0 0 1 0 0 0 0 0 0 1 1 1 0 0 -0 -1 -2 -2 -2 -2 -3 -3 -2 -2 -2 -2
2 2 2 1 1 1 1 1 1 0 0 1 1 1 1 1 1 1 1 1 1 1 1 0 0 1 1 1 1 1 1 0 0 -0 -1 -1 -1 -2 -2 -2 -1 -1 -0
2 2 2 2 2 2 3 3 3 3 3 3 3 3 3 3 4 4 4 3 3 2 2 2 2 2 1 1 1 1 1 1 1 1 0 -0 -1 -1 -1 -0 0 1 1
2 3 3 3 3 3 4 4 4 4 4 4 4 4 4 5 5 6 6 5 5 4 4 4 4 3 3 3 3 3 2 2 2 1 1 0 0 0 1 1 1 1 1
3 3 3 4 4 4 4 4 4 4 4 4 4 4 4 4 5 6 6 6 6 5 5 5 5 5 4 4 4 4 3 3 2 2 1 1 1 1 1 1 1 1 1
3 4 4 4 4 3 3 3 4 4 4 4 4 4 3 3 4 5 6 6 5 5 5 5 5 5 5 4 4 4 4 3 2 2 1 1 1 1 1 1 1 1 1
4 4 4 4 3 3 2 2 3 3 3 3 4 3 3 3 3 4 5 5 5 5 5 6 6 6 5 5 5 5 4 4 3 2 2 1 1 1 0 0 0 0 1
4 4 4 3 2 2 1 1 1 1 1 2 2 3 3 3 3 3 4 4 5 5 5 5 6 6 6 6 6 6 5 5 4 3 3 3 2 2 1 1 1 1 1
3 3 3 2 2 1 1 0 0 1 1 1 2 2 3 2 2 3 3 4 4 5 5 5 5 6 6 6 6 5 5 5 5 4 4 4 3 3 3 2 2 2 2
3 3 3 2 2 2 2 2 2 2 2 2 2 2 2 2 2 3 3 4 4 4 4 5 5 5 5 5 5 5 5 5 4 4 3 3 3 3 3 3 3 2 2
3 3 2 2 2 2 2 3 3 3 3 3 3 3 2 2 2 3 3 4 4 4 5 5 5 5 5 5 5 5 5 4 4 3 2 2 2 2 2 2 2 3 3
3 3 3 2 2 2 2 3 3 3 4 4 4 3 2 2 2 2 3 3 4 4 5 5 5 5 5 5 5 5 6 5 4 3 2 2 2 1 1 2 2 2 3
4 3 3 3 3 2 2 3 3 3 3 4 4 3 3 3 2 2 2 3 3 4 4 5 5 5 5 5 5 6 7 8 6 5 4 3 2 2 1 2 2 2 2
5 4 3 3 3 3 3 3 3 3 3 3 3 3 3 3 3 2 2 2 3 3 4 4 4 5 5 5 6 6 8 9 8 6 4 4 3 2 2 1 2 2 2